Wind_Speed
12 12 13 13 12 13 14 14 14 14 14 15 15 15 15 15 16 17 18 19 19 20 20 20 20 20 21 21 21 22 22 24 24 24 24 24 24 24
13 12 12 12 13 14 14 14 14 14 14 15 15 15 16 16 16 17 17 18 19 20 20 20 21 20 20 21 21 22 23 23 23 23 23 23 24 24
13 13 13 14 14 15 15 15 15 16 16 16 17 17 17 18 17 17 18 18 18 18 19 19 20 20 21 22 22 22 23 24 24 24 24 24 25 25
14 14 15 15 15 15 15 16 16 17 17 17 17 18 18 18 18 18 18 18 19 19 20 20 20 20 21 22 23 23 23 24 25 25 24 24 25 25
16 16 16 16 16 16 16 17 17 17 18 18 19 19 19 19 19 19 19 19 19 20 21 21 22 22 22 22 22 22 23 23 24 24 23 24 24 25
17 17 17 17 17 18 18 18 18 18 19 19 19 19 19 19 20 19 20 20 21 21 21 22 23 23 23 23 23 23 24 24 24 23 23 23 23 24
18 18 19 19 19 19 19 18 18 19 19 20 20 20 20 20 21 21 22 22 22 22 22 23 23 23 23 23 24 24 24 24 24 23 24 24 23 23
19 19 19 19 19 20 20 19 19 20 21 21 21 21 21 22 22 22 22 23 23 23 23 24 24 23 23 24 24 24 24 24 24 24 24 24 24 24
20 20 21 21 21 21 21 21 21 22 22 22 22 23 23 23 23 23 24 24 24 23 24 24 24 24 24 24 24 24 24 24 24 24 24 24 24 25
21 22 22 22 22 22 23 23 23 23 23 23 23 23 23 24 24 24 24 25 24 24 24 24 24 24 24 24 24 25 25 25 25 25 24 24 24 25
23 24 24 24 23 24 24 24 24 24 24 24 24 24 24 24 24 24 24 25 24 24 24 24 24 24 24 23 24 25 25 25 25 25 25 25 25 26
25 25 24 24 24 24 25 25 25 25 25 25 25 25 24 24 24 24 25 25 25 24 24 24 24 24 24 25 25 25 25 25 25 25 26 27 27 27
27 26 26 26 26 26 26 26 26 26 26 26 25 25 25 25 25 25 26 26 25 25 25 25 25 25 25 25 25 25 26 26 27 27 27 27 28 28
27 27 27 27 27 27 27 26 26 26 26 26 26 26 26 25 25 25 26 27 26 25 25 26 26 26 26 26 26 26 27 28 27 27 28 28 29 29
28 28 28 28 28 27 27 27 27 27 27 27 27 26 27 27 28 27 27 27 27 26 26 26 27 27 28 27 27 27 28 28 28 28 28 28 28 29
29 28 28 28 28 28 28 28 28 28 27 27 28 28 28 28 28 28 28 28 27 26 27 27 27 27 28 29 29 28 28 28 28 27 28 29 28 29
28 28 28 28 28 28 28 28 28 28 28 27 27 28 28 28 28 28 28 28 28 27 27 27 27 27 28 28 27 27 27 27 28 28 28 28 29 29
27 28 28 28 28 28 28 28 27 27 27 27 27 27 28 28 28 28 28 28 28 27 27 27 27 27 26 27 27 27 27 27 28 29 29 29 29 29
27 27 27 28 28 28 28 28 28 28 28 28 28 28 28 28 27 27 28 28 27 26 26 26 27 26 25 25 25 26 26 27 27 28 29 29 29 29
27 27 26 26 27 27 27 27 28 28 28 29 29 28 28 28 28 28 28 27 27 26 26 27 27 26 25 24 25 26 27 27 27 27 28 29 29 30
28 27 27 27 27 27 27 27 28 28 29 29 28 28 28 28 28 27 28 28 28 27 27 27 26 26 25 25 25 25 26 27 28 28 29 29 29 30
28 27 27 27 27 27 27 28 28 28 27 28 28 28 28 28 28 28 28 28 28 28 27 26 25 25 24 25 26 26 26 27 28 28 29 29 30 30
28 28 27 27 28 29 29 28 28 28 28 28 29 28 28 28 28 28 28 28 28 27 26 26 25 25 25 25 26 27 28 28 28 28 29 30 30 30
Wind_Direction
319 319 320 319 316 318 316 312 310 310 311 311 309 307 303 300 297 294 287 284 282 281 283 283 279 276 275 275 275 274 274 273 273 272 271 270 267 266
320 319 320 321 321 320 316 313 312 310 308 309 308 307 305 303 299 297 295 290 285 283 282 281 278 278 278 278 279 278 277 274 274 275 273 269 268 267
321 321 321 319 316 316 314 312 312 311 308 306 306 306 304 303 301 298 296 292 290 287 286 285 282 279 281 281 280 279 276 274 273 274 273 270 269 268
319 316 316 316 314 313 312 311 310 310 309 306 306 305 303 302 301 298 296 294 291 289 289 289 287 283 283 283 284 282 281 278 275 275 274 272 270 269
315 313 313 313 312 312 310 309 309 308 308 308 306 305 303 302 300 297 296 294 292 292 293 292 290 287 286 285 286 285 283 281 278 274 275 274 272 270
311 311 310 310 310 311 310 308 307 306 306 307 307 306 304 303 302 298 296 294 295 295 295 295 292 289 288 285 286 286 285 284 281 276 274 274 273 272
307 308 309 308 309 309 310 308 306 305 305 305 305 304 304 303 303 302 299 296 297 297 297 296 294 290 287 286 285 285 285 284 283 281 276 274 273 271
303 304 305 305 306 305 306 306 305 304 303 303 303 302 301 301 301 302 300 297 296 295 295 295 294 292 288 286 285 284 284 283 283 282 280 277 275 273
301 302 303 303 303 303 304 305 304 303 302 301 301 300 300 300 300 301 300 298 296 295 295 294 292 291 290 287 286 285 284 285 284 282 280 278 275 273
298 299 299 299 300 302 303 303 302 302 302 301 299 299 299 299 299 299 300 299 297 297 297 295 293 291 290 288 287 286 285 285 284 282 281 279 278 276
297 297 296 297 299 299 301 301 301 300 299 300 300 300 299 299 298 298 299 299 298 298 297 296 295 293 291 289 288 287 286 285 284 282 280 280 279 279
296 295 296 298 299 300 300 299 299 297 297 298 299 300 300 300 299 299 300 300 299 299 298 296 296 295 292 289 289 290 289 287 286 284 283 281 281 281
296 296 296 297 299 300 300 299 298 296 295 295 296 298 298 297 298 298 299 299 298 299 298 296 295 294 293 291 289 289 289 289 287 286 285 284 282 282
297 296 295 296 298 298 297 298 297 295 294 294 295 295 296 296 296 296 297 296 296 296 296 295 295 293 292 292 291 289 289 289 288 288 286 285 284 283
295 295 295 296 296 297 297 296 295 294 292 292 293 293 294 295 295 295 296 295 295 295 295 294 294 293 292 293 293 292 292 290 289 289 289 287 286 285
294 294 294 295 295 296 296 294 294 293 292 292 293 292 292 293 294 294 296 295 295 295 295 295 294 293 293 293 293 292 292 291 291 290 290 289 288 287
294 295 295 295 295 296 295 294 294 293 292 292 292 292 293 294 294 294 294 294 294 295 295 295 293 292 292 292 292 292 293 292 291 289 290 290 290 289
294 294 295 295 294 295 295 295 294 293 293 292 293 293 294 294 294 294 295 295 294 294 295 295 294 292 291 292 292 293 293 292 291 290 290 290 290 291
295 295 296 295 294 294 295 295 294 292 292 292 292 293 293 293 293 294 295 297 296 295 295 294 294 292 291 290 291 293 294 294 294 295 294 293 292 292
294 295 296 296 296 295 295 295 294 292 291 291 292 292 292 294 294 295 296 296 296 296 295 294 292 291 290 291 292 293 294 295 296 297 298 297 294 292
293 293 293 294 295 294 294 295 295 293 291 291 291 291 292 293 294 295 296 296 296 297 296 295 293 291 290 291 293 295 295 295 297 298 298 298 297 295
292 291 291 292 292 293 293 293 294 294 293 292 291 291 292 292 293 294 295 296 296 297 295 294 292 291 291 291 293 294 296 296 296 296 297 297 298 298
291 292 292 291 290 290 291 292 293 293 293 293 292 291 291 292 293 294 294 294 295 294 293 292 291 291 292 293 294 295 296 297 297 297 298 299 299 299
Height
5874 5873 5871 5869 5867 5866 5865 5863 5861 5859 5857 5855 5853 5851 5849 5848 5846 5845 5844 5843 5841 5840 5839 5838 5837 5836 5835 5835 5834 5833 5832 5831 5830 5830 5829 5828 5828 5828
5872 5870 5868 5867 5865 5863 5861 5859 5858 5856 5854 5852 5850 5848 5846 5844 5842 5841 5839 5838 5837 5835 5834 5833 5832 5831 5830 5829 5828 5827 5826 5825 5824 5823 5822 5821 5821 5821
5869 5868 5866 5864 5862 5860 5858 5856 5854 5852 5850 5848 5846 5844 5842 5840 5838 5836 5835 5833 5832 5830 5829 5828 5827 5826 5824 5823 5822 5821 5820 5818 5817 5816 5815 5815 5815 5814
5866 5865 5863 5861 5859 5857 5855 5853 5851 5848 5847 5844 5842 5840 5838 5836 5834 5832 5830 5828 5827 5825 5824 5822 5821 5820 5818 5817 5816 5814 5813 5812 5811 5809 5809 5808 5808 5808
5863 5861 5859 5857 5855 5853 5851 5849 5847 5845 5842 5840 5838 5835 5833 5831 5829 5827 5825 5823 5821 5820 5818 5817 5815 5814 5812 5811 5809 5808 5806 5805 5804 5803 5802 5801 5801 5800
5859 5857 5855 5853 5851 5849 5847 5844 5842 5840 5838 5836 5833 5831 5828 5826 5824 5822 5820 5818 5816 5814 5813 5811 5809 5807 5806 5804 5803 5801 5800 5798 5797 5796 5795 5795 5794 5793
5855 5853 5851 5849 5846 5844 5842 5840 5838 5835 5833 5831 5828 5826 5824 5821 5819 5817 5815 5813 5811 5809 5807 5805 5803 5801 5799 5798 5796 5795 5793 5792 5790 5789 5788 5787 5787 5786
5851 5848 5846 5844 5842 5840 5837 5835 5833 5831 5828 5825 5823 5821 5818 5816 5814 5812 5809 5808 5805 5803 5801 5799 5796 5794 5792 5791 5789 5788 5786 5785 5783 5782 5781 5780 5779 5778
5845 5843 5841 5839 5837 5835 5832 5830 5827 5825 5823 5820 5818 5815 5813 5811 5808 5806 5803 5801 5799 5797 5794 5792 5790 5788 5786 5784 5782 5780 5779 5778 5776 5775 5774 5773 5772 5771
5840 5838 5835 5833 5831 5829 5826 5824 5821 5819 5817 5814 5812 5810 5807 5805 5802 5800 5797 5795 5792 5790 5788 5786 5783 5781 5779 5777 5775 5773 5772 5771 5769 5768 5766 5765 5764 5764
5834 5831 5829 5827 5825 5822 5820 5817 5815 5813 5810 5808 5806 5803 5801 5798 5796 5794 5791 5789 5786 5783 5781 5779 5776 5774 5772 5770 5768 5766 5764 5763 5761 5760 5759 5757 5756 5755
5827 5825 5822 5820 5818 5815 5813 5810 5808 5805 5803 5801 5799 5797 5794 5792 5789 5787 5784 5782 5779 5777 5774 5772 5769 5767 5765 5763 5761 5759 5757 5755 5753 5751 5750 5749 5748 5747
5820 5817 5815 5813 5811 5808 5806 5803 5801 5798 5796 5794 5792 5790 5787 5785 5782 5780 5777 5775 5772 5770 5768 5765 5762 5760 5758 5756 5754 5751 5749 5747 5745 5743 5741 5740 5739 5738
5813 5810 5808 5806 5803 5801 5798 5796 5794 5791 5789 5787 5785 5783 5780 5778 5775 5773 5770 5767 5765 5763 5760 5758 5755 5753 5750 5748 5746 5744 5741 5739 5737 5735 5733 5731 5729 5728
5805 5803 5800 5798 5796 5793 5791 5788 5786 5784 5781 5779 5777 5775 5773 5771 5768 5765 5763 5760 5757 5755 5753 5750 5748 5745 5743 5740 5738 5736 5734 5731 5729 5726 5724 5722 5720 5719
5797 5795 5793 5790 5788 5785 5783 5780 5778 5775 5773 5771 5769 5767 5765 5763 5760 5758 5755 5752 5750 5748 5745 5743 5740 5738 5735 5733 5730 5727 5725 5723 5721 5718 5716 5714 5712 5710
5789 5787 5784 5782 5779 5777 5774 5772 5770 5767 5765 5763 5761 5759 5757 5754 5752 5750 5747 5744 5742 5740 5737 5735 5732 5730 5727 5724 5722 5720 5717 5715 5713 5710 5708 5706 5704 5702
5781 5779 5776 5774 5771 5768 5766 5763 5761 5759 5757 5755 5753 5751 5749 5747 5744 5742 5739 5736 5734 5732 5729 5727 5724 5722 5719 5717 5714 5711 5709 5707 5704 5702 5699 5697 5695 5693
5773 5770 5768 5765 5763 5760 5758 5755 5753 5751 5749 5747 5745 5743 5741 5739 5736 5734 5731 5729 5726 5723 5721 5719 5716 5713 5711 5709 5707 5704 5701 5699 5696 5693 5691 5689 5686 5684
5765 5763 5760 5757 5755 5752 5750 5748 5745 5743 5741 5739 5737 5735 5733 5730 5728 5726 5723 5721 5718 5716 5713 5711 5708 5706 5703 5701 5699 5696 5694 5691 5688 5686 5683 5680 5678 5675
5757 5755 5752 5750 5747 5744 5742 5740 5737 5735 5733 5731 5728 5726 5724 5722 5720 5718 5715 5713 5710 5707 5705 5703 5700 5698 5695 5693 5692 5689 5686 5683 5681 5678 5675 5672 5669 5666
5749 5746 5744 5741 5739 5736 5734 5731 5729 5727 5724 5722 5720 5718 5716 5714 5711 5709 5707 5704 5702 5699 5697 5695 5692 5690 5688 5686 5683 5681 5678 5676 5673 5670 5667 5664 5661 5658
5740 5738 5735 5733 5730 5728 5725 5723 5721 5718 5716 5714 5711 5709 5707 5705 5703 5700 5698 5696 5693 5691 5688 5686 5684 5682 5680 5678 5675 5673 5670 5667 5664 5661 5659 5655 5652 5650